| time (UTC) | temp C | wind direction | speed KPH | gust KPH | rain 1hr cm | rain 24hr cm | rain mn cm | humidity % | barometer mb |
| 20260904141503 | 26 | 274 | 0.0 | 6.4 | 0.00 | 0.00 | 0.00 | 87 | 1015.6 |
| 20260904140005 | 26 | 217 | 0.0 | 12.9 | 0.00 | 0.00 | 0.00 | 88 | 1015.5 |
| 20260904134508 | 26 | 213 | 0.0 | 9.7 | 0.00 | 0.00 | 0.00 | 90 | 1015.4 |
| 20260904133013 | 25 | 248 | 3.2 | 6.4 | 0.00 | 0.00 | 0.00 | 91 | 1015.3 |
| 20260904131532 | 25 | 246 | 0.0 | 4.8 | 0.00 | 0.00 | 0.00 | 91 | 1015.2 |
| 20260904130004 | 25 | 240 | 0.0 | 3.2 | 0.00 | 0.00 | 0.00 | 90 | 1015.3 |
| 20260904124509 | 26 | 159 | 0.0 | 3.2 | 0.00 | 0.00 | 0.00 | 89 | 1015.3 |
| 20260904123012 | 26 | 283 | 0.0 | 3.2 | 0.00 | 0.00 | 0.00 | 88 | 1015.2 |
| 20260904121518 | 26 | 187 | 0.0 | 4.8 | 0.00 | 0.00 | 0.00 | 88 | 1014.9 |
| 20260904120029 | 26 | 107 | 0.0 | 4.8 | 0.00 | 0.00 | 0.00 | 88 | 1014.7 |
| 20260904114506 | 26 | 140 | 0.0 | 6.4 | 0.00 | 0.00 | 0.00 | 87 | 1014.5 |
| 20260904113010 | 26 | 119 | 0.0 | 6.4 | 0.00 | 0.00 | 0.00 | 87 | 1014.4 |
| 20260904111517 | 26 | 141 | 0.0 | 4.8 | 0.00 | 0.00 | 0.00 | 86 | 1014.2 |
| 20260904110024 | 26 | 309 | 0.0 | 3.2 | 0.00 | 0.00 | 0.00 | 86 | 1014.2 |
| 20260904104527 | 26 | 111 | 0.0 | 4.8 | 0.00 | 0.00 | 0.00 | 86 | 1014.2 |
| 20260904103010 | 26 | 119 | 1.6 | 6.4 | 0.00 | 0.00 | 0.00 | 85 | 1014.1 |
| 20260904101514 | 26 | 138 | 1.6 | 4.8 | 0.00 | 0.00 | 0.00 | 85 | 1014.0 |
| 20260904100027 | 26 | 310 | 0.0 | 6.4 | 0.00 | 0.00 | 0.00 | 85 | 1013.9 |
| 20260904094526 | 26 | 148 | 0.0 | 3.2 | 0.00 | 0.00 | 0.00 | 84 | 1013.7 |
| 20260904093052 | 26 | 319 | 0.0 | 6.4 | 0.00 | 0.00 | 0.00 | 83 | 1013.6 |
| 20260904091515 | 26 | 223 | 1.6 | 8.0 | 0.00 | 0.00 | 0.00 | 83 | 1013.8 |
| 20260904090019 | 26 | 242 | 0.0 | 3.2 | 0.00 | 0.00 | 0.00 | 83 | 1013.8 |
| 20260904084524 | 26 | 135 | 0.0 | 4.8 | 0.00 | 0.00 | 0.00 | 83 | 1013.8 |
| 20260904083029 | 26 | 290 | 0.0 | 8.0 | 0.00 | 0.00 | 0.00 | 84 | 1013.8 |
| 20260904081532 | 26 | 97 | 0.0 | 4.8 | 0.00 | 0.00 | 0.00 | 83 | 1013.8 |
| 20260904080018 | 26 | 191 | 1.6 | 12.9 | 0.00 | 0.00 | 0.00 | 83 | 1013.8 |
| 20260904074522 | 26 | 252 | 3.2 | 8.0 | 0.00 | 0.00 | 0.00 | 83 | 1013.8 |
| 20260904073048 | 26 | 248 | 3.2 | 16.1 | 0.00 | 0.00 | 0.00 | 83 | 1013.9 |
| 20260904071535 | 26 | 277 | 0.0 | 11.3 | 0.00 | 0.00 | 0.00 | 83 | 1014.1 |
| 20260904070033 | 26 | 171 | 0.0 | 4.8 | 0.00 | 0.00 | 0.00 | 83 | 1014.3 |
| 20260904064520 | 26 | 78 | 0.0 | 4.8 | 0.00 | 0.00 | 0.00 | 82 | 1014.3 |
| 20260904063026 | 26 | 300 | 0.0 | 6.4 | 0.00 | 0.00 | 0.00 | 82 | 1014.3 |
| 20260904061508 | 26 | 208 | 1.6 | 6.4 | 0.00 | 0.00 | 0.00 | 81 | 1014.2 |
| 20260904060012 | 26 | 43 | 1.6 | 9.7 | 0.00 | 0.00 | 0.00 | 80 | 1014.4 |
| 20260904054517 | 26 | 29 | 1.6 | 8.0 | 0.00 | 0.00 | 0.00 | 80 | 1014.3 |
| 20260904053003 | 26 | 224 | 1.6 | 11.3 | 0.00 | 0.00 | 0.00 | 80 | 1014.1 |
| 20260904051506 | 26 | 204 | 1.6 | 11.3 | 0.00 | 0.00 | 0.00 | 80 | 1014.1 |
| 20260904050008 | 26 | 143 | 3.2 | 12.9 | 0.00 | 0.00 | 0.00 | 80 | 1014.0 |
| 20260904044517 | 26 | 147 | 1.6 | 11.3 | 0.00 | 0.00 | 0.00 | 79 | 1014.1 |
| 20260904043017 | 26 | 144 | 3.2 | 11.3 | 0.00 | 0.00 | 0.00 | 79 | 1013.9 |
| 20260904041503 | 27 | 171 | 0.0 | 9.7 | 0.00 | 0.00 | 0.00 | 79 | 1014.0 |
| 20260904040008 | 26 | 115 | 0.0 | 8.0 | 0.00 | 0.00 | 0.00 | 78 | 1013.9 |
| 20260904034516 | 27 | 107 | 1.6 | 9.7 | 0.00 | 0.00 | 0.00 | 78 | 1013.8 |
| 20260904033030 | 27 | 157 | 1.6 | 14.5 | 0.00 | 0.00 | 0.00 | 77 | 1013.7 |
| 20260904031525 | 27 | 128 | 1.6 | 14.5 | 0.00 | 0.00 | 0.00 | 76 | 1013.7 |
| 20260904030003 | 27 | 151 | 1.6 | 11.3 | 0.00 | 0.00 | 0.00 | 74 | 1013.4 |
| 20260904024512 | 27 | 324 | 0.0 | 6.4 | 0.00 | 0.00 | 0.00 | 73 | 1013.4 |
| 20260904023016 | 27 | 119 | 3.2 | 11.3 | 0.00 | 0.00 | 0.00 | 72 | 1013.3 |
| 20260904021527 | 27 | 190 | 0.0 | 11.3 | 0.00 | 0.00 | 0.00 | 71 | 1013.1 |
| 20260904020027 | 28 | 134 | 3.2 | 17.7 | 0.00 | 0.00 | 0.00 | 70 | 1012.9 |
| 20260904014508 | 28 | 150 | 0.0 | 16.1 | 0.00 | 0.00 | 0.00 | 69 | 1012.9 |
| 20260904013018 | 28 | 82 | 1.6 | 8.0 | 0.00 | 0.00 | 0.00 | 69 | 1012.5 |
| 20260904011519 | 28 | 123 | 1.6 | 14.5 | 0.00 | 0.00 | 0.00 | 68 | 1012.4 |
| 20260904010025 | 28 | 32 | 0.0 | 16.1 | 0.00 | 0.00 | 0.00 | 67 | 1012.3 |
| 20260904004507 | 29 | 104 | 1.6 | 14.5 | 0.00 | 0.00 | 0.00 | 67 | 1012.3 |
| 20260904003027 | 29 | 151 | 0.0 | 19.3 | 0.00 | 0.00 | 0.00 | 66 | 1012.2 |
| 20260904001518 | 30 | 43 | 0.0 | 8.0 | 0.00 | 0.00 | 0.00 | 65 | 1012.2 |
| 20260904000030 | 30 | 107 | 1.6 | 12.9 | 0.00 | 0.00 | 0.00 | 63 | 1012.0 |
| 20260903234530 | 31 | 164 | 1.6 | 19.3 | 0.00 | 0.00 | 0.00 | 62 | 1012.0 |
| 20260903233007 | 31 | 160 | 1.6 | 16.1 | 0.00 | 0.00 | 0.00 | 62 | 1011.8 |
| 20260903231513 | 32 | 146 | 3.2 | 12.9 | 0.00 | 0.00 | 0.00 | 61 | 1011.7 |
| 20260903230040 | 32 | 352 | 1.6 | 22.5 | 0.00 | 0.00 | 0.00 | 60 | 1011.7 |
| 20260903224531 | 33 | 275 | 4.8 | 24.1 | 0.00 | 0.00 | 0.00 | 60 | 1011.6 |
| 20260903223032 | 34 | 63 | 3.2 | 16.1 | 0.00 | 0.00 | 0.00 | 58 | 1011.3 |
| 20260903221513 | 34 | 295 | 3.2 | 14.5 | 0.00 | 0.00 | 0.00 | 57 | 1011.3 |
| 20260903220018 | 34 | 123 | 3.2 | 12.9 | 0.00 | 0.00 | 0.00 | 53 | 1011.3 |
| 20260903214537 | 35 | 84 | 1.6 | 9.7 | 0.00 | 0.00 | 0.00 | 51 | 1011.2 |
| 20260903213029 | 35 | 342 | 1.6 | 9.7 | 0.00 | 0.00 | 0.00 | 52 | 1011.4 |
| 20260903211530 | 35 | 53 | 1.6 | 12.9 | 0.00 | 0.00 | 0.00 | 50 | 1011.4 |
| 20260903210016 | 36 | 129 | 3.2 | 9.7 | 0.00 | 0.00 | 0.00 | 48 | 1011.7 |
| 20260903204524 | 36 | 27 | 1.6 | 9.7 | 0.00 | 0.00 | 0.00 | 50 | 1011.7 |
| 20260903203035 | 36 | 188 | 1.6 | 4.8 | 0.00 | 0.00 | 0.00 | 49 | 1012.0 |
| 20260903201535 | 38 | 179 | 1.6 | 9.7 | 0.00 | 0.00 | 0.00 | 44 | 1012.2 |
| 20260903200041 | 38 | 26 | 1.6 | 11.3 | 0.00 | 0.00 | 0.00 | 44 | 1012.3 |
| 20260903194520 | 37 | 105 | 1.6 | 11.3 | 0.00 | 0.00 | 0.00 | 46 | 1012.3 |
| 20260903193027 | 35 | 333 | 0.0 | 9.7 | 0.00 | 0.00 | 0.00 | 49 | 1012.5 |
| 20260903191505 | 34 | 134 | 0.0 | 3.2 | 0.00 | 0.00 | 0.00 | 54 | 1012.9 |
| 20260903190012 | 33 | 62 | 1.6 | 8.0 | 0.00 | 0.00 | 0.00 | 54 | 1013.1 |
| 20260903184516 | 33 | 113 | 0.0 | 8.0 | 0.00 | 0.00 | 0.00 | 54 | 1013.5 |
| 20260903183004 | 34 | 124 | 1.6 | 4.8 | 0.00 | 0.00 | 0.00 | 52 | 1013.7 |
| 20260903181505 | 35 | 238 | 1.6 | 14.5 | 0.00 | 0.00 | 0.00 | 52 | 1013.9 |
| 20260903180031 | 35 | 237 | 1.6 | 12.9 | 0.00 | 0.00 | 0.00 | 50 | 1014.1 |
| 20260903174510 | 33 | 215 | 0.0 | 3.2 | 0.00 | 0.00 | 0.00 | 55 | 1014.3 |
| 20260903173033 | 34 | 218 | 1.6 | 9.7 | 0.00 | 0.00 | 0.00 | 54 | 1014.4 |
| 20260903171510 | 35 | 108 | 3.2 | 11.3 | 0.00 | 0.00 | 0.00 | 52 | 1014.5 |
| 20260903170043 | 33 | 266 | 3.2 | 9.7 | 0.00 | 0.00 | 0.00 | 59 | 1014.5 |
| 20260903164510 | 32 | 124 | 1.6 | 4.8 | 0.00 | 0.00 | 0.00 | 62 | 1014.5 |
| 20260903163017 | 32 | 270 | 4.8 | 11.3 | 0.00 | 0.00 | 0.00 | 61 | 1014.5 |
| 20260903161528 | 32 | 199 | 3.2 | 16.1 | 0.00 | 0.00 | 0.00 | 61 | 1014.4 |
| 20260903160039 | 32 | 282 | 4.8 | 17.7 | 0.00 | 0.00 | 0.00 | 60 | 1014.5 |
| 20260903154512 | 32 | 259 | 8.0 | 16.1 | 0.00 | 0.00 | 0.00 | 63 | 1014.6 |
| 20260903153017 | 30 | 289 | 1.6 | 11.3 | 0.00 | 0.00 | 0.00 | 69 | 1014.5 |
| 20260903151521 | 29 | 269 | 0.0 | 9.7 | 0.00 | 0.00 | 0.00 | 71 | 1014.4 |
| 20260903150038 | 29 | 225 | 1.6 | 11.3 | 0.00 | 0.00 | 0.00 | 72 | 1014.4 |
| 20260903144508 | 28 | 183 | 3.2 | 14.5 | 0.00 | 0.00 | 0.00 | 75 | 1014.2 |
| 20260903143014 | 28 | 238 | 3.2 | 12.9 | 0.00 | 0.00 | 0.00 | 77 | 1014.3 |